CRYOSAT 2

Last updated on Wed Sep 23 2026 00:04:10 GMT+0000 (Coordinated Universal Time)

1 36508U 10013A 26265.60347968 .00000149 00000+0 36364-4 0 9990 2 36508 92.0266 300.9518 0002271 86.0350 274.1116 14.51902305872211
UTC large
Height (km)
Speed (km/s)
/
Latitude / Longitude
Inclination (degrees)
Orbital Period (minutes)
Azimuth
Elevation
Range (km)
Doppler Factor

Next 0 passes for location: London (51.5072 / 0.1276)

No passes found over London.
CRYOSAT 2